ONEWEB-0687, 61595

Orbit data source: Space-Track

ONEWEB-0687, 61595 is a payload satellite owned by Eut. One Web (UK) in LEO that was launched on Sun, 20 Oct 2024 UTC via an FALCON 9 launch vehicle from the Air Force Western Test Range (AFWTR). Payload-class satellites include a variety of spacecraft equipped with specific instruments for various scientific and technological missions. These include communications satellites like Starlink; space stations such as the ISS; scientific satellites like the Hubble; Earth observation satellites from companies like Planet Labs, Umbra, and HawkEye 360; GPS; miniature CubeSats for education and research; and military/defense satellites.

Loading next visibility...
Identifier
61595, 2024-188B
Orbit
LEO
Last TLE update
4 hours ago
Origin
Manufacturer
One Web
Mission
Operational Commercial Communications
Bus & Motor
ARROW, Unknown motor
Mass
148 kg wet, ~140 kg dry
Launch date (UTC)
2024-10-20 (8 months ago)
Launch vehicle
FALCON 9
Launch site
Air Force Western Test Range (AFWTR)
Object type
Payload
Rocket body
Debris
Shape & HBR
Trap Box + 2 Pan, 5 m
Radar Cross Section
2.032 m², Large (>1 m²)

Expand to show TLE details & history

TLE from 4 hours ago
0 ONEWEB-0687
1 61595U 24188B   25186.58335648  .00046111  00000-0  11782+0 0  9994
2 61595  87.9077  74.9155 0001507  62.4540 297.0287 13.17828502 38543
Epoch: 2025-07-05T14:00Z
TLE epoch observation values (Epoch: 2025-07-05T14:00:01.999Z)
Latitude
-0.64924°
Longitude
-58.93574°
Altitude
1,195.493 km
Speed
7.256 km/s
True Right ascension
04h 59m 34s
True Declination
0° 38' 44"
Sunlit
Object was in daylight at epoch
Visualization orbit readout
Latitude
17.39511°
Longitude
-58.29069°
Altitude
1,194.475 km
Speed
7.258 km/s
Apparent Right ascension
03h 48m 34s
Apparent Declination
-35° 47' 14"
Sunlit
Object is in daylight
Visualization observer readout
Local Sidereal Time
05:39:34
Azimuth
202.559° SW
Elevation
10.101°
Doppler factor
1
Orbital elements
Apogee altitude
1,191.275 km
Perigee altitude
1,188.994 km
Semi-major axis
7,568.271 km
Eccentricity
0.00015
Inclination
87.9077°
RAAN
74.9155°
Arg. of periapsis
62.454°
True anomaly
Unknown
Mean anomaly
297.0287°
Eccentric anomaly
Unknown
Mean motion
3.29646 °/min
Orbital period
109.21 mins
BSTAR
0.11782
Loading maneuver chart data...
Loading SW <> Apogee altitude chart data...
Loading historical data...
Loading historical data...
Loading historical data...
Loading historical data...
Loading historical data...
Loading historical data...
Loading historical data...

ONEWEB-0687 Visibility forecast

Observer location: undefined°, undefined°

Span
Click to sort rows by Start time (UTC) header in descending order
Start Az.
Max El. time (UTC)
Max El. Az.
Max El.
End time (UTC)
End Az.
12 mins2025-07-05 17:45:08.986Z205.616° SW2025-07-05 17:51:08.986Z277.148° WNW36.696°2025-07-05 17:57:08.986Z346.663° N
9 mins2025-07-06 03:23:08.986Z34.359° NE2025-07-06 03:27:08.986Z72.766° E20.625°2025-07-06 03:32:08.986Z120.626° SE
12 mins2025-07-06 05:12:08.986Z349.503° N2025-07-06 05:17:08.986Z281.162° WNW41.927°2025-07-06 05:24:08.986Z195.404° SSW
8 mins2025-07-06 15:40:08.986Z111.479° ESE2025-07-06 15:43:08.986Z80.652° E21.648°2025-07-06 15:48:08.986Z31.602° NE
12 mins2025-07-06 17:27:08.986Z198.697° SSW2025-07-06 17:32:08.986Z267.995° W41.051°2025-07-06 17:39:08.986Z353.017° N
|